Location: Aufkirchen
(47.9603°N, 11.3653°E)
Time: 05:59:14
(UTC+02:00)

Transit 4A - Visible Passes

Search period start: 19 May 2021 00:00
Search period end: 29 May 2021 00:00
Orbit: 871 x 974 km, 66.8° (Epoch: 18 May)

Date Brightness Start Highest point End Pass type
(mag) Time Alt. Az. Time Alt. Az. Time Alt. Az.
19 May 10.2 00:29:08 10° NNW 00:33:21 20° NNE 00:37:32 10° ENE visible
19 May 8.1 02:15:03 10° NNW 02:20:53 65° NE 02:26:39 10° SE visible
19 May 8.8 04:02:06 10° NW 04:06:46 25° WSW 04:10:43 13° SSW visible
19 May 10.5 22:52:00 10° NNW 22:54:25 12° N 22:56:48 10° NNE visible
20 May 9.8 00:38:20 10° NNW 00:43:04 24° NNE 00:47:44 10° E visible
20 May 7.7 02:24:20 10° NW 02:30:13 88° NE 02:34:57 16° SE visible
20 May 9.2 04:12:08 10° WNW 04:15:46 17° WSW 04:18:22 13° SW visible
20 May 10.4 23:01:31 10° NNW 23:04:18 13° NNE 23:07:05 10° NE visible
21 May 9.4 00:47:33 10° NNW 00:52:42 30° NE 00:57:47 10° E visible
21 May 7.7 02:33:42 10° NW 02:39:30 66° WSW 02:42:54 25° SSE visible
21 May 9.6 04:23:14 10° W 04:24:42 11° W 04:26:09 10° WSW visible
21 May 10.3 23:10:51 10° NNW 23:14:10 15° NNE 23:17:27 10° NE visible
22 May 8.9 00:56:45 10° NNW 01:02:15 39° NE 01:07:37 10° ESE visible
22 May 8.1 02:43:09 10° NW 02:48:42 46° WSW 02:51:04 30° SSW visible
22 May 10.5 21:32:44 10° NNW 21:35:01 12° N 21:37:15 10° NNE visible
22 May 10.2 23:20:06 10° NNW 23:23:58 18° NNE 23:27:49 10° ENE visible
23 May 8.4 01:05:59 10° NNW 01:11:44 53° NE 01:15:56 18° ESE visible
23 May 8.5 02:52:44 10° NW 02:57:49 32° WSW 02:59:24 28° SW visible
23 May 10.4 21:42:42 10° NNW 21:44:55 12° N 21:47:09 10° NNE visible
23 May 9.9 23:29:19 10° NNW 23:33:43 21° NNE 23:38:05 10° ENE visible
24 May 7.9 01:15:15 10° NNW 01:21:08 72° NE 01:24:23 27° SE visible
24 May 9.0 03:02:32 10° WNW 03:06:52 22° WSW 03:07:50 21° WSW visible
24 May 10.3 21:52:20 10° NNW 21:54:50 13° N 21:57:19 10° NE visible
24 May 9.6 23:38:31 10° NNW 23:43:24 26° NE 23:48:14 10° E visible
25 May 7.7 01:24:34 10° NW 01:30:27 82° WSW 01:32:55 36° SSE visible
25 May 9.4 03:12:46 10° WNW 03:15:51 15° WSW 03:16:23 15° WSW visible
25 May 10.2 22:01:46 10° NNW 22:04:44 14° NNE 22:07:40 10° NE visible
25 May 9.1 23:47:44 10° NNW 23:53:01 33° NE 23:58:03 11° ESE visible
26 May 7.9 01:33:58 10° NW 01:39:41 58° WSW 01:41:31 41° S visible
26 May 10.1 22:11:04 10° NNW 22:14:34 16° NNE 22:18:03 10° ENE visible
26 May 8.7 23:56:56 10° NNW 00:02:32 43° NE 00:06:43 17° ESE visible
27 May 8.3 01:43:27 10° NW 01:48:51 40° WSW 01:50:11 35° SW visible
27 May 9.9 22:20:18 10° NNW 22:24:21 19° NNE 22:28:22 10° ENE visible
28 May 8.2 00:06:11 10° NNW 00:11:59 59° NE 00:15:27 24° ESE visible
28 May 8.8 01:53:06 10° NW 01:57:57 28° WSW 01:58:55 27° SW visible
28 May 9.7 22:29:31 10° NNW 22:34:05 23° NNE 22:38:37 10° E visible
